Waarnemingen

Advertentie
Mijn weer
Montpellier, Frankrijk (7643): temperatuur & dauwpunt: 20.04.2018 11:00:00 - 26.04.2018 11:00:00 (CEST)Montpellier, Frankrijk (7643): temperatuur 5cm: 20.04.2018 11:00:00 - 26.04.2018 11:00:00 (CEST)Montpellier, Frankrijk (7643): temperatuur -20cm & temperatuur -100cm: 20.04.2018 11:00:00 - 26.04.2018 11:00:00 (CEST)Montpellier, Frankrijk (7643): windsnelheid & windstoten: 20.04.2018 11:00:00 - 26.04.2018 11:00:00 (CEST)Montpellier, Frankrijk (7643): windrichting: 20.04.2018 11:00:00 - 26.04.2018 11:00:00 (CEST)Montpellier, Frankrijk (7643): luchtdruk: 20.04.2018 11:00:00 - 26.04.2018 11:00:00 (CEST)Montpellier, Frankrijk (7643): zicht: 20.04.2018 11:00:00 - 26.04.2018 11:00:00 (CEST)Montpellier, Frankrijk (7643): Zonneschijnduur: 20.04.2018 11:00:00 - 26.04.2018 11:00:00 (CEST)Montpellier, Frankrijk (7643): neerslag: 20.04.2018 11:00:00 - 26.04.2018 11:00:00 (CEST)
Datum & Tijd tt [°C] td [°C] tt 5cm [°C] tt -20cm [°C] tt -100cm [°C] ff [km/u] ff [kn] fx [km/u] fx [kn] dd ppp [hPa] vv [km] sd [min] rr [mm]
26.04.2018 11:00:00 20,5 5,3 - - - 15 8 29 16 NNW 1017,9 55 - -
26.04.2018 10:00:00 19,6 6,0 20,4 18,2 15,5 21 11 35 19 NNW 1018,3 10 60 0,0
26.04.2018 09:00:00 18,2 7,0 16,6 18,2 15,5 19 11 29 15 NW 1018,5 60 60 0,0
26.04.2018 08:00:00 16,6 8,3 11,5 18,3 15,5 12 6 15 8 NW 1018,5 60 54 0,0
26.04.2018 07:00:00 15,0 7,0 10,0 18,6 15,5 10 6 15 8 NW 1018,4 60 0 0,0
26.04.2018 06:00:00 15,4 6,1 10,6 18,8 15,5 11 6 17 9 NW 1018,2 60 0 0,0
26.04.2018 05:00:00 15,9 6,3 13,4 19,1 15,5 11 6 25 13 NW 1018,3 60 0 0,0
26.04.2018 04:00:00 15,3 6,3 13,6 19,3 15,5 16 9 26 14 NNW 1018,0 60 0 0,0
26.04.2018 03:00:00 16,6 6,4 15,1 19,6 15,5 16 9 30 16 NW 1018,2 10 0 0,0
26.04.2018 02:00:00 17,4 6,3 16,0 19,9 15,5 18 10 35 19 NW 1018,4 60 0 0,0
26.04.2018 01:00:00 17,6 7,0 15,4 20,2 15,4 22 12 40 21 NW 1018,1 60 0 0,0
26.04.2018 00:00:00 17,9 7,3 17,0 20,5 15,4 27 15 51 27 WNW 1017,2 60 0 0,0
25.04.2018 23:00:00 18,2 8,7 17,4 20,9 15,4 32 17 49 26 WNW 1016,6 60 0 0,0
25.04.2018 22:00:00 18,4 10,5 17,5 21,2 15,4 34 18 53 28 WNW 1016,4 60 0 0,0
25.04.2018 21:00:00 18,8 11,4 17,9 21,5 15,4 28 15 46 25 W 1016,0 60 17 0,0
25.04.2018 20:00:00 20,6 12,3 20,0 21,8 15,4 25 14 52 28 W 1015,0 44 60 0,0
25.04.2018 19:00:00 24,1 13,0 24,2 21,9 15,4 32 18 43 23 W 1014,7 17 60 0,0
25.04.2018 18:00:00 26,8 14,2 28,0 21,8 15,4 26 14 35 19 W 1014,7 15 60 0,0
25.04.2018 17:00:00 26,5 16,4 28,0 21,6 15,4 18 10 32 17 ZW 1014,9 14 60 0,0
25.04.2018 16:00:00 22,1 17,5 28,4 21,3 15,4 22 12 31 17 ZZW 1015,8 14 60 0,0
25.04.2018 15:00:00 21,1 16,5 30,1 20,7 15,4 17 9 27 15 Z 1016,8 14 60 0,0
25.04.2018 14:00:00 21,3 16,3 31,6 20,0 15,4 10 5 18 10 Z 1017,2 14 60 0,0
25.04.2018 13:00:00 20,1 15,7 31,0 19,3 15,3 11 6 16 8 ZZO 1018,1 13 60 0,0
25.04.2018 12:00:00 20,1 15,9 29,3 18,7 15,3 8 4 13 7 ZZO 1019,0 14 60 0,0
25.04.2018 11:00:00 20,0 15,0 20,6 18,3 15,3 0 0 8 4 N 1019,3 14 34 0,0
25.04.2018 10:00:00 18,2 14,9 19,1 18,2 15,3 5 3 18 10 OZO 1019,1 13 1 0,0
25.04.2018 09:00:00 17,0 15,3 16,4 18,2 15,3 10 5 17 9 NNO 1018,5 8 29 0,0
25.04.2018 08:00:00 16,0 15,4 15,4 18,2 15,3 10 6 16 9 N 1018,0 4,2 12 0,0
25.04.2018 07:00:00 15,7 15,2 15,0 18,4 15,3 11 6 15 8 NNO 1017,5 0,7 0 0,0
25.04.2018 06:00:00 14,9 14,3 13,6 18,5 15,3 7 4 13 7 N 1017,2 0,1 0 0,2
25.04.2018 05:00:00 13,8 13,0 12,3 18,7 15,3 6 3 14 8 N 1017,1 0,2 0 0,0
25.04.2018 04:00:00 13,6 12,2 12,2 19,0 15,3 9 5 12 6 NNO 1016,7 17 0 0,0
25.04.2018 03:00:00 14,7 12,0 13,5 19,2 15,3 11 6 18 10 ZO 1016,9 20 0 0,0
25.04.2018 02:00:00 18,2 15,3 11,8 19,4 15,2 16 9 19 11 ZO 1017,0 37 0 0,0
25.04.2018 01:00:00 16,1 11,7 11,2 19,8 15,2 11 6 15 8 ZZO 1017,3 39 0 0,0
25.04.2018 00:00:00 17,2 10,8 12,1 20,1 15,2 6 3 14 7 ZW 1017,2 52 0 0,0
24.04.2018 23:00:00 18,5 11,6 13,4 20,4 15,2 10 6 14 7 WZW 1017,2 50 0 0,0
24.04.2018 22:00:00 18,8 12,3 14,4 20,8 15,2 3 2 17 9 WZW 1017,1 51 0 0,0
24.04.2018 21:00:00 19,9 13,1 16,8 21,0 15,2 9 5 24 13 ZW 1016,7 52 15 0,0
24.04.2018 20:00:00 20,6 14,0 19,6 21,3 15,2 16 9 26 14 ZW 1016,5 49 60 0,0
24.04.2018 19:00:00 22,2 13,5 23,2 21,4 15,2 16 9 26 14 ZW 1016,5 57 60 0,0
24.04.2018 18:00:00 23,1 13,8 25,3 21,4 15,2 19 11 29 16 ZW 1016,6 19 60 0,0
24.04.2018 17:00:00 24,5 11,8 28,8 21,1 15,2 16 9 26 14 ZZW 1016,9 20 60 0,0
24.04.2018 16:00:00 24,7 14,2 30,2 20,7 15,2 19 11 29 16 ZW 1017,5 50 60 0,0
24.04.2018 15:00:00 25,1 14,2 33,1 20,1 15,2 16 9 24 13 ZZW 1018,0 20 60 0,0
24.04.2018 14:00:00 24,7 15,6 33,7 19,3 15,1 14 8 21 12 ZZW 1018,3 60 60 0,0
24.04.2018 13:00:00 25,6 13,4 32,3 18,6 15,1 8 4 18 10 ONO 1018,8 60 60 0,0
24.04.2018 12:00:00 24,4 12,7 30,1 18,0 15,1 9 5 23 13 N 1019,2 60 60 0,0
24.04.2018 11:00:00 23,4 13,3 29,6 17,4 15,1 10 5 19 11 NNO 1019,4 20 60 0,0
24.04.2018 10:00:00 21,6 15,0 25,5 17,1 15,1 2 1 10 5 ONO 1019,3 18 60 0,0
24.04.2018 09:00:00 18,5 13,6 17,0 17,0 15,1 4 2 8 5 N 1019,0 39 60 0,0
24.04.2018 08:00:00 16,2 13,3 9,5 17,1 15,1 5 3 9 5 WNW 1019,0 20 51 0,0
24.04.2018 07:00:00 11,8 9,9 8,2 17,4 15,1 6 3 8 4 NW 1018,5 19 0 0,0
24.04.2018 06:00:00 12,7 11,3 8,4 17,7 15,1 0 0 13 7 N 1018,3 20 0 0,0
24.04.2018 05:00:00 12,5 9,7 9,7 17,9 15,1 2 1 12 6 N 1018,4 15 0 0,0
24.04.2018 04:00:00 14,6 12,3 11,0 18,1 15,1 8 5 10 5 NNW 1018,6 20 0 0,0
24.04.2018 03:00:00 15,5 12,6 11,0 18,3 15,1 9 5 14 8 W 1018,6 29 0 0,0
24.04.2018 02:00:00 15,6 13,6 11,0 18,6 15,1 0 0 9 5 N 1018,8 16 0 0,0
24.04.2018 01:00:00 16,5 13,8 13,4 18,8 15,0 4 2 15 8 NNO 1019,5 17 0 0,0
24.04.2018 00:00:00 17,9 14,2 17,0 18,9 15,0 9 5 21 11 N 1019,6 20 0 0,0
23.04.2018 23:00:00 18,2 15,4 17,2 19,1 15,0 8 4 17 9 N 1018,6 17 0 0,0
23.04.2018 22:00:00 18,1 15,5 17,0 19,2 15,0 9 5 16 9 N 1018,3 16 0 0,0
23.04.2018 21:00:00 18,9 14,8 18,3 19,3 15,0 8 4 28 15 NNW 1018,1 19 0 0,0
23.04.2018 20:00:00 19,2 15,1 18,5 19,5 15,0 23 12 35 19 ZW 1018,0 20 0 0,0
23.04.2018 19:00:00 19,5 14,7 19,1 19,6 15,0 4 2 10 6 WNW 1017,8 19 0 0,0
23.04.2018 18:00:00 19,6 14,4 20,2 19,5 15,0 5 3 16 9 ZZW 1018,0 16 0 0,0
23.04.2018 17:00:00 20,2 12,7 21,2 19,5 15,0 10 5 18 10 ZZW 1018,7 20 0 0,0
23.04.2018 16:00:00 20,1 13,1 22,0 19,3 15,0 13 7 19 10 ZZW 1018,9 19 0 0,0
23.04.2018 15:00:00 20,9 13,1 24,7 19,0 14,9 6 3 10 6 Z 1018,9 20 0 0,0
23.04.2018 14:00:00 20,4 13,4 24,6 18,6 14,9 7 4 14 7 ZZO 1019,2 19 23 0,0
23.04.2018 13:00:00 20,8 14,0 26,4 18,0 14,9 9 5 14 7 OZO 1019,6 17 40 0,0
23.04.2018 12:00:00 20,8 13,2 23,0 17,6 14,9 6 4 11 6 ONO 1019,6 10 27 0,0
23.04.2018 11:00:00 19,2 12,7 21,7 17,3 14,9 6 4 14 8 NO 1019,7 20 23 0,0
23.04.2018 10:00:00 18,6 12,6 19,2 17,1 14,9 10 5 19 11 NNO 1019,6 20 60 0,2
23.04.2018 09:00:00 16,2 12,2 14,1 17,1 14,9 12 6 21 11 N 1019,5 17 58 0,0
23.04.2018 08:00:00 13,4 11,5 11,0 17,3 14,8 12 6 18 10 NNO 1018,8 15 48 0,0
23.04.2018 07:00:00 12,0 10,6 9,8 17,5 14,8 9 5 20 11 NNO 1018,8 15 0 0,0
23.04.2018 06:00:00 11,7 10,3 10,3 17,7 14,8 10 6 15 8 N 1018,6 11 0 0,0
23.04.2018 05:00:00 12,6 11,2 11,4 17,9 14,8 12 6 16 8 NNO 1018,6 11 0 0,0
23.04.2018 04:00:00 12,9 11,5 10,4 18,1 14,8 13 7 17 9 NO 1018,7 10 0 0,0
23.04.2018 03:00:00 12,3 10,7 10,2 18,4 14,8 11 6 16 9 NO 1019,0 15 0 0,0
23.04.2018 02:00:00 12,4 11,0 10,9 18,7 14,8 9 5 14 8 NO 1019,1 13 0 0,0
23.04.2018 01:00:00 13,5 11,9 11,4 19,0 14,8 10 6 14 7 NO 1019,1 16 0 0,0
23.04.2018 00:00:00 13,3 11,7 10,1 19,4 14,7 8 4 10 6 NNO 1019,4 17 0 0,0
22.04.2018 23:00:00 14,3 11,8 10,8 19,7 14,8 4 2 9 5 NNO 1019,1 19 0 0,0
22.04.2018 22:00:00 16,7 12,4 11,3 20,1 14,7 5 3 7 4 Z 1018,8 43 0 0,0
22.04.2018 21:00:00 17,2 12,5 13,4 20,4 14,7 2 1 13 7 Z 1018,1 20 13 0,0
22.04.2018 20:00:00 18,0 12,9 17,9 20,6 14,7 7 4 16 8 Z 1017,4 41 24 0,0
22.04.2018 19:00:00 18,2 13,5 19,4 20,7 14,7 10 5 17 9 Z 1017,5 20 24 0,0
22.04.2018 18:00:00 19,5 14,3 23,0 20,6 14,7 11 6 20 11 Z 1017,5 20 52 0,0
22.04.2018 17:00:00 19,3 13,7 23,9 20,4 14,7 15 8 23 13 Z 1017,6 20 23 0,0
22.04.2018 16:00:00 19,8 14,6 25,2 20,0 14,7 19 10 25 13 Z 1017,8 19 31 0,0
22.04.2018 15:00:00 20,4 15,2 29,0 19,5 14,6 17 9 22 12 ZZO 1018,1 19 60 0,0
22.04.2018 14:00:00 20,5 15,5 25,7 18,9 14,6 16 8 23 12 ZZO 1018,2 19 50 0,0
22.04.2018 13:00:00 19,6 14,8 25,7 18,2 14,6 16 9 19 10 ZZO 1018,6 19 48 0,0
22.04.2018 12:00:00 20,5 15,1 26,7 17,5 14,6 9 5 17 9 ZO 1018,9 17 60 0,0
22.04.2018 11:00:00 19,9 14,5 24,0 17,1 14,6 9 5 20 11 ONO 1018,8 17 60 0,0
22.04.2018 10:00:00 18,6 13,7 19,7 16,9 14,6 12 6 19 10 ONO 1018,5 18 60 0,0
22.04.2018 09:00:00 15,7 11,7 14,1 16,9 14,6 11 6 18 10 NNO 1018,5 20 60 0,0
22.04.2018 08:00:00 12,8 10,2 9,6 17,0 14,6 10 6 17 9 NNO 1018,2 20 48 0,0
22.04.2018 07:00:00 10,8 8,2 8,9 17,3 14,6 11 6 20 11 NNO 1017,7 27 0 0,0
22.04.2018 06:00:00 10,5 8,9 8,6 17,5 14,6 10 5 14 8 N 1017,6 15 0 0,0
22.04.2018 05:00:00 11,1 9,5 8,1 17,8 14,6 8 4 11 6 NNO 1017,9 10 0 0,0
22.04.2018 04:00:00 11,2 9,5 9,2 18,1 14,5 8 5 12 7 NO 1017,9 12 0 0,0
22.04.2018 03:00:00 11,8 10,2 9,5 18,4 14,5 10 6 14 8 NNO 1018,3 13 0 0,0
22.04.2018 02:00:00 11,9 9,1 8,2 18,8 14,5 9 5 10 6 NNO 1018,8 15 0 0,0
22.04.2018 01:00:00 14,7 11,5 8,7 19,1 14,5 5 3 9 5 NNW 1019,0 18 0 0,0
22.04.2018 00:00:00 14,3 11,8 9,0 19,5 14,5 0 0 6 4 N 1018,7 19 0 0,0
21.04.2018 23:00:00 16,8 11,9 10,2 19,9 14,5 2 1 10 5 W 1019,1 33 0 0,0
21.04.2018 22:00:00 17,4 12,1 14,0 20,3 14,4 9 5 16 9 ZZW 1018,9 35 0 0,0
21.04.2018 21:00:00 18,1 10,9 15,2 20,7 14,4 10 6 21 11 ZW 1018,4 47 12 0,0
21.04.2018 20:00:00 20,0 11,2 18,6 20,9 14,4 16 8 23 12 ZW 1018,1 42 60 0,0
21.04.2018 19:00:00 22,0 10,8 22,6 21,0 14,4 16 8 21 11 ZZW 1018,1 60 60 0,0
21.04.2018 18:00:00 23,6 9,6 26,3 21,0 14,4 12 7 22 12 ZZW 1018,3 20 60 0,0
21.04.2018 17:00:00 24,1 10,7 28,9 20,8 14,4 15 8 21 11 ZZW 1018,6 53 60 0,0
21.04.2018 16:00:00 24,9 11,5 31,9 20,3 14,4 13 7 18 10 ZZW 1019,2 19 60 0,0
21.04.2018 15:00:00 24,7 10,2 33,5 19,6 14,4 11 6 16 9 ZZW 1019,5 20 60 0,0
21.04.2018 14:00:00 25,0 10,1 33,3 18,9 14,3 8 4 10 5 ZZO 1019,7 20 60 0,0
21.04.2018 13:00:00 24,1 9,7 31,7 18,0 14,3 6 3 9 5 ZZO 1020,2 56 60 0,0
21.04.2018 12:00:00 22,4 13,2 30,0 17,3 14,3 6 3 10 6 ZZO 1020,7 43 60 0,0
21.04.2018 11:00:00 22,2 10,7 27,4 16,8 14,3 4 2 10 5 NO 1020,8 38 60 0,0
21.04.2018 10:00:00 19,8 10,8 23,5 16,5 14,3 6 3 11 6 NNO 1020,7 20 60 0,0
21.04.2018 09:00:00 16,7 11,0 16,4 16,4 14,3 7 4 10 5 NNO 1020,8 20 60 0,0
21.04.2018 08:00:00 14,4 10,0 8,0 16,6 14,3 5 3 8 4 NW 1020,9 24 46 0,0
21.04.2018 07:00:00 10,4 7,6 8,1 16,8 14,2 6 3 13 7 N 1020,4 20 0 0,0
21.04.2018 06:00:00 10,8 7,5 8,9 17,1 14,3 7 4 8 5 N 1020,4 22 0 0,0
21.04.2018 05:00:00 12,8 9,1 9,2 17,4 14,3 8 4 11 6 NW 1020,7 20 0 0,0
21.04.2018 04:00:00 12,5 8,0 8,3 17,7 14,2 6 3 8 5 WNW 1021,0 20 0 0,0
21.04.2018 03:00:00 13,4 9,3 9,2 18,0 14,2 3 2 8 4 N 1021,2 22 0 0,0
21.04.2018 02:00:00 13,7 9,3 9,8 18,3 14,2 5 3 11 6 N 1021,4 20 0 0,0
21.04.2018 01:00:00 13,3 9,9 10,2 18,7 14,2 7 4 9 5 N 1021,6 18 0 0,0
21.04.2018 00:00:00 16,9 11,2 10,7 19,0 14,2 5 3 7 4 W 1021,6 17 0 0,0
20.04.2018 23:00:00 17,8 11,6 11,3 19,3 14,2 4 2 9 5 W 1021,8 20 0 0,0
20.04.2018 22:00:00 18,0 11,3 11,8 19,7 14,1 7 4 9 5 Z 1021,9 29 0 0,0
20.04.2018 21:00:00 20,1 10,5 14,8 20,0 14,1 7 4 13 7 W 1021,4 43 11 0,0
20.04.2018 20:00:00 21,5 9,4 19,0 20,2 14,1 9 5 19 10 W 1021,3 56 60 0,0
20.04.2018 19:00:00 22,2 8,0 22,4 20,3 14,1 13 7 18 10 ZZW 1021,6 60 60 0,0
20.04.2018 18:00:00 22,8 8,1 25,2 20,2 14,1 14 8 19 11 ZW 1021,9 60 60 0,0
20.04.2018 17:00:00 23,2 8,1 28,6 20,0 14,1 11 6 19 10 ZZW 1022,2 20 60 0,0
20.04.2018 16:00:00 23,3 8,9 30,5 19,5 14,1 13 7 20 11 ZZW 1022,8 58 60 0,0
20.04.2018 15:00:00 23,6 9,2 31,0 18,9 14,0 9 5 16 9 Z 1023,5 20 60 0,0
20.04.2018 14:00:00 23,2 8,8 31,4 18,1 14,0 13 7 17 9 ZZO 1023,8 20 60 0,0
20.04.2018 13:00:00 22,7 11,1 29,7 17,3 14,0 6 3 12 7 ZZO 1024,2 60 60 0,0
20.04.2018 12:00:00 22,7 10,8 27,4 16,7 14,0 8 5 14 8 O 1024,4 60 60 0,0
20.04.2018 11:00:00 21,0 10,2 25,8 16,2 14,0 10 5 16 9 O 1024,3 20 60 0,0

tt = temperatuur
td = dauwpunt
tt 5cm = temperatuur 5cm
tt -20cm = temperatuur -20cm
tt -100cm = temperatuur -100cm
ff = windsnelheid
fx = windstoten
dd = windrichting
ppp = luchtdruk
vv = zicht
sd = Zonneschijnduur
rr = neerslag

Weerstations in de omgeving